Weather in Stantsiya Kamenny Klyuch

Russia / Kemerovo Oblast     54°05′59″N   86°08′04″E
temp.,
°C
wind,
m/s
gust,
m/s
humid.,
%
clouds,
%
prec.,
mm/h
press.,
hPa
HPBL,
m
8 march, mon
mon801:00−9ssw239897 0.1 102366
04:00−9s239897 0.0 102256
07:00−8sse269899 0.1 1020130
10:00−4sse3890100 0.0 1016281
13:00+1s41085100 0.0 1013459
16:00+1ssw61972100 0.0 10111366
19:00−1sw71782100 0.0 10111005
22:00−1sw81690100 0.0 10121125
9 march, tue
tue901:00−1wsw81594100 1.6 10141137
04:00−5w5128999 0.7 1019715
07:00−11wsw4119099 0.7 1025350
10:00−11sw51287100 0.0 1029513
13:00−8sw597691 0.0 1029704
16:00−6sw497476 0.0 1028766
19:00−10ssw379249 0.0 1027213
22:00−10s3109099 0.0 1026252
10 march, wed
wed1001:00−11ssw3988100 0.0 1024223
04:00−11ssw389076 0.0 1022163
07:00−8ssw4129588 0.0 1021311
10:00−3sw51392100 0.1 1020698
13:00−1sw51289100 0.1 1018834
16:000sw3891100 0.0 1017626
19:00−2se2698100 0.0 1014167
22:00−3se3895100 0.0 1011189
11 march, thu
thu1101:00−1sse41279100 0.0 1007290
04:000ssw71776100 0.0 1005791
07:00+1sw81696100 1.2 10061007
10:000sw81597100 0.7 10091236
13:00−2wsw61278100 1.0 1013700
16:00−4wsw51086100 0.0 1016581
19:00−6sw51191100 0.1 1019769
22:00−6sw51291100 0.1 1022896
12 march, fri
fri1201:00−7ssw41194100 0.3 1022596
04:00−9s5119595 0.0 1019343
07:00−5ssw8159292 0.4 10171066
10:00−5wsw61294100 2.2 10181109
13:00−7wsw61390100 4.3 10191202
16:00−8wsw61483100 0.6 10191307
19:00−10wsw41082100 0.8 1020853
22:00−13sw3791100 0.0 1021243